When you browse on this site, cookies collect data to enhance your experience and personalize the content and advertising you see.
Visit our Privacy Policy to learn more. By continuing to use the site, you agree to this use of cookies and data.
  • In Czech Republic
  • List of Countries
  • For 7 days
  • Water Temperature
  • Weather Map
  • Weather Widgets
  • user-avatar
    Login

    Hourly Weather Canberra

    Today, 3 April, Friday

    Time Temperature Precipitation Wind Pressure Humidity
    00:00 +14°C° 0 mm 2 mps 704 mmHg 93%
    01:00 +13°C° 0 mm 2 mps 704 mmHg 91%
    02:00 +13°C° 0 mm 2 mps 704 mmHg 91%
    03:00 +12°C° 0 mm 2 mps 704 mmHg 92%
    04:00 +12°C° 0 mm 1 mps 704 mmHg 95%
    05:00 +12°C° 0 mm 1 mps 704 mmHg 93%
    06:00 +12°C° 0 mm 1 mps 704 mmHg 92%
    07:00 +13°C° 0 mm 1 mps 704 mmHg 90%
    08:00 +14°C° 0 mm 1 mps 704 mmHg 85%
    09:00 +15°C° 0 mm 1 mps 704 mmHg 79%
    10:00 +18°C° 0 mm 1 mps 705 mmHg 72%
    11:00 +17°C° 0 mm 2 mps 704 mmHg 68%
    12:00 +18°C° 0 mm 2 mps 703 mmHg 63%
    13:00 +19°C° 0 mm 2 mps 703 mmHg 59%
    14:00 +19°C° 0.2 mm 2 mps 702 mmHg 66%
    15:00 +18°C° 0.2 mm 2 mps 701 mmHg 73%
    16:00 +18°C° 0.2 mm 1 mps 701 mmHg 80%
    17:00 +18°C° 0.5 mm 1 mps 701 mmHg 85%
    18:00 +16°C° 0.5 mm 1 mps 701 mmHg 90%
    19:00 +15°C° 0.5 mm 1 mps 700 mmHg 95%
    20:00 +15°C° 0.6 mm 1 mps 700 mmHg 95%
    21:00 +15°C° 0.6 mm 1 mps 700 mmHg 95%
    22:00 +15°C° 0.6 mm 1 mps 699 mmHg 95%
    23:00 +15°C° 0.1 mm 2 mps 699 mmHg 95%

    Tomorrow, 4 April, Saturday

    Time Temperature Precipitation Wind Pressure Humidity
    00:00 +16°C° 0.1 mm 2 mps 698 mmHg 95%
    01:00 +16°C° 0.1 mm 3 mps 697 mmHg 95%
    02:00 +16°C° 0.6 mm 3 mps 697 mmHg 96%
    03:00 +16°C° 0.6 mm 3 mps 696 mmHg 96%
    04:00 +16°C° 0.6 mm 3 mps 695 mmHg 97%
    05:00 +15°C° 1.7 mm 4 mps 695 mmHg 96%
    06:00 +15°C° 1.7 mm 5 mps 695 mmHg 94%
    07:00 +15°C° 1.7 mm 6 mps 695 mmHg 93%
    08:00 +15°C° 0.1 mm 8 mps 696 mmHg 85%
    09:00 +13°C° 0.1 mm 9 mps 697 mmHg 76%
    10:00 +13°C° 0.1 mm 10 mps 698 mmHg 68%
    11:00 +13°C° 0 mm 10 mps 698 mmHg 65%
    12:00 +13°C° 0 mm 10 mps 698 mmHg 63%
    13:00 +14°C° 0 mm 10 mps 698 mmHg 60%
    14:00 +13°C° 0 mm 9 mps 699 mmHg 61%
    15:00 +13°C° 0 mm 9 mps 699 mmHg 62%
    16:00 +12°C° 0 mm 9 mps 699 mmHg 63%
    17:00 +11°C° 0 mm 8 mps 700 mmHg 66%
    18:00 +10°C° 0 mm 7 mps 701 mmHg 69%
    19:00 +9°C° 0 mm 7 mps 702 mmHg 72%
    20:00 +9°C° 0 mm 6 mps 702 mmHg 70%
    21:00 +8°C° 0 mm 6 mps 703 mmHg 69%
    22:00 +8°C° 0 mm 6 mps 704 mmHg 68%
    23:00 +8°C° 0 mm 5 mps 704 mmHg 71%

    Day after tomorrow, 5 April, Sunday

    Time Temperature Precipitation Wind Pressure Humidity
    00:00 +7°C° 0 mm 5 mps 704 mmHg 74%
    01:00 +7°C° 0 mm 4 mps 704 mmHg 77%
    02:00 +6°C° 0 mm 4 mps 705 mmHg 77%
    03:00 +6°C° 0 mm 4 mps 705 mmHg 77%
    04:00 +6°C° 0 mm 4 mps 705 mmHg 78%
    05:00 +5°C° 0 mm 4 mps 705 mmHg 77%
    06:00 +5°C° 0 mm 4 mps 706 mmHg 76%
    07:00 +5°C° 0 mm 3 mps 706 mmHg 75%
    08:00 +6°C° 0 mm 4 mps 706 mmHg 66%
    09:00 +8°C° 0 mm 5 mps 707 mmHg 58%
    10:00 +10°C° 0 mm 6 mps 707 mmHg 50%
    11:00 +10°C° 0 mm 6 mps 707 mmHg 50%
    12:00 +11°C° 0 mm 7 mps 706 mmHg 49%
    13:00 +12°C° 0 mm 7 mps 706 mmHg 49%
    14:00 +12°C° 0 mm 7 mps 706 mmHg 51%
    15:00 +12°C° 0 mm 7 mps 706 mmHg 53%
    16:00 +13°C° 0 mm 6 mps 706 mmHg 55%
    17:00 +11°C° 0 mm 6 mps 707 mmHg 59%
    18:00 +10°C° 0 mm 5 mps 707 mmHg 62%
    19:00 +11°C° 0 mm 4 mps 708 mmHg 66%
    20:00 +10°C° 0 mm 4 mps 708 mmHg 70%
    21:00 +10°C° 0 mm 3 mps 708 mmHg 73%
    22:00 +9°C° 0 mm 3 mps 709 mmHg 77%
    23:00 +9°C° 0 mm 3 mps 709 mmHg 77%

    6 April, Monday

    Time Temperature Precipitation Wind Pressure Humidity
    00:00 +10°C° 0 mm 3 mps 709 mmHg 76%
    01:00 +10°C° 0 mm 3 mps 709 mmHg 76%
    02:00 +10°C° 0 mm 3 mps 709 mmHg 78%
    03:00 +9°C° 0 mm 3 mps 709 mmHg 80%
    04:00 +9°C° 0 mm 3 mps 709 mmHg 82%
    05:00 +9°C° 0 mm 3 mps 709 mmHg 85%
    06:00 +9°C° 0 mm 2 mps 710 mmHg 87%
    07:00 +8°C° 0 mm 2 mps 710 mmHg 89%
    08:00 +10°C° 0 mm 2 mps 711 mmHg 79%
    09:00 +12°C° 0 mm 3 mps 711 mmHg 69%
    10:00 +16°C° 0 mm 3 mps 711 mmHg 59%
    11:00 +17°C° 0 mm 3 mps 711 mmHg 56%
    12:00 +18°C° 0 mm 3 mps 711 mmHg 52%
    13:00 +19°C° 0 mm 3 mps 711 mmHg 48%
    14:00 +18°C° 0 mm 3 mps 711 mmHg 50%
    15:00 +18°C° 0 mm 3 mps 711 mmHg 52%
    16:00 +17°C° 0 mm 3 mps 710 mmHg 54%
    17:00 +16°C° 0 mm 2 mps 711 mmHg 63%
    18:00 +14°C° 0 mm 2 mps 711 mmHg 72%
    19:00 +12°C° 0 mm 2 mps 711 mmHg 81%
    20:00 +12°C° 0 mm 2 mps 712 mmHg 84%
    21:00 +12°C° 0 mm 2 mps 712 mmHg 87%
    22:00 +10°C° 0 mm 2 mps 712 mmHg 90%
    23:00 +10°C° 0 mm 2 mps 713 mmHg 90%

    7 April, Tuesday

    Time Temperature Precipitation Wind Pressure Humidity
    00:00 +11°C° 0 mm 1 mps 713 mmHg 91%
    01:00 +11°C° 0 mm 1 mps 713 mmHg 91%
    02:00 +11°C° 0 mm 1 mps 713 mmHg 91%
    03:00 +11°C° 0 mm 1 mps 713 mmHg 91%
    04:00 +10°C° 0 mm 2 mps 713 mmHg 91%
    05:00 +9°C° 0 mm 2 mps 713 mmHg 90%
    06:00 +10°C° 0 mm 1 mps 713 mmHg 90%
    07:00 +10°C° 0 mm 1 mps 713 mmHg 90%
    08:00 +10°C° 0 mm 2 mps 714 mmHg 81%
    09:00 +13°C° 0 mm 2 mps 714 mmHg 72%
    10:00 +15°C° 0 mm 2 mps 714 mmHg 63%
    11:00 +16°C° 0 mm 1 mps 714 mmHg 59%
    12:00 +18°C° 0 mm 1 mps 713 mmHg 55%
    13:00 +18°C° 0 mm 1 mps 713 mmHg 51%
    14:00 +18°C° 0 mm 1 mps 713 mmHg 51%
    15:00 +18°C° 0 mm 1 mps 712 mmHg 51%
    16:00 +18°C° 0 mm 1 mps 712 mmHg 52%
    17:00 +15°C° 0 mm 1 mps 712 mmHg 58%
    18:00 +14°C° 0 mm 1 mps 713 mmHg 65%
    19:00 +12°C° 0 mm 1 mps 713 mmHg 71%
    20:00 +11°C° 0 mm 1 mps 713 mmHg 77%
    21:00 +10°C° 0 mm 1 mps 713 mmHg 83%
    22:00 +9°C° 0 mm 1 mps 713 mmHg 89%
    23:00 +9°C° 0 mm 1 mps 713 mmHg 90%

    8 April, Wednesday

    Time Temperature Precipitation Wind Pressure Humidity
    00:00 +9°C° 0 mm 1 mps 713 mmHg 90%
    01:00 +9°C° 0 mm 1 mps 713 mmHg 90%
    02:00 +9°C° 0 mm 1 mps 713 mmHg 88%
    03:00 +9°C° 0 mm 1 mps 713 mmHg 86%
    04:00 +9°C° 0 mm 1 mps 713 mmHg 84%
    05:00 +9°C° 0 mm 1 mps 713 mmHg 82%
    06:00 +10°C° 0 mm 1 mps 714 mmHg 81%
    07:00 +10°C° 0 mm 1 mps 714 mmHg 79%
    08:00 +12°C° 0 mm 2 mps 715 mmHg 73%
    09:00 +14°C° 0 mm 2 mps 715 mmHg 67%
    10:00 +16°C° 0 mm 2 mps 715 mmHg 61%
    11:00 +17°C° 0 mm 2 mps 715 mmHg 57%
    12:00 +19°C° 0 mm 2 mps 715 mmHg 53%
    13:00 +20°C° 0 mm 2 mps 715 mmHg 49%
    14:00 +19°C° 0 mm 2 mps 715 mmHg 51%
    15:00 +19°C° 0 mm 2 mps 714 mmHg 52%
    16:00 +18°C° 0 mm 3 mps 714 mmHg 54%
    17:00 +16°C° 0 mm 3 mps 715 mmHg 65%
    18:00 +13°C° 0 mm 3 mps 715 mmHg 76%
    19:00 +11°C° 0 mm 3 mps 715 mmHg 86%
    20:00 +12°C° 0 mm 2 mps 716 mmHg 89%
    21:00 +10°C° 0 mm 2 mps 716 mmHg 91%
    22:00 +11°C° 0 mm 1 mps 717 mmHg 93%
    23:00 +10°C° 0 mm 1 mps 717 mmHg 94%
    Show more